This is the latest recevied weather packets stored in our database for station/object W4OTS. If no packets are shown the sender has not sent any weather packets the latest 10 day(s).
| Time | Temp. | Humidity | Pressure | Rain* | Wind** | Luminosity | Snow |
|---|---|---|---|---|---|---|---|
| 1777578341 | 22.78° C | 47% | 1011.3 hPa | 0 mm | - | 119 W/m² | - |
| 1777578038 | 23.33° C | 45% | 1011.3 hPa | 0 mm | - | 77 W/m² | - |
| 1777577738 | 22.78° C | 45% | 1011.3 hPa | 0 mm | - | 63 W/m² | - |
| 1777577435 | 22.78° C | 47% | 1011.3 hPa | 0 mm | - | 60 W/m² | - |
| 1777577132 | 22.78° C | 44% | 1011.3 hPa | 0 mm | - | 60 W/m² | - |
| 1777576828 | 23.33° C | 49% | 1011.6 hPa | 0 mm | - | 63 W/m² | - |
| 1777576527 | 23.33° C | 46% | 1011.4 hPa | 0 mm | - | 77 W/m² | - |
| 1777576224 | 22.78° C | 49% | 1011.8 hPa | 0 mm | - | 100 W/m² | - |
| 1777575920 | 23.33° C | 49% | 1011.8 hPa | 0 mm | - | 107 W/m² | - |
| 1777575616 | 23.33° C | 48% | 1011.8 hPa | 0 mm | - | 117 W/m² | - |
| 1777575312 | 23.33° C | 48% | 1011.5 hPa | 0 mm | - | 218 W/m² | - |
| 1777575008 | 23.89° C | 44% | 1011.6 hPa | 0 mm | - | 254 W/m² | - |
| 1777574704 | 23.33° C | 50% | 1011.8 hPa | 0 mm | - | 560 W/m² | - |
| 1777574402 | 22.78° C | 50% | 1011.9 hPa | 0 mm | - | 559 W/m² | - |
| 1777574097 | 22.22° C | 52% | 1011.6 hPa | 0 mm | - | 620 W/m² | - |
| 1777573792 | 23.33° C | 51% | 1012.2 hPa | 0 mm | - | 210 W/m² | - |
| 1777573488 | 23.89° C | 46% | 1012 hPa | 0 mm | - | 701 W/m² | - |
| 1777573184 | 23.89° C | 49% | 1011.9 hPa | 0 mm | - | 738 W/m² | - |
| 1777572881 | 23.89° C | 52% | 1011.9 hPa | 0 mm | - | 742 W/m² | - |
| 1777572577 | 23.33° C | 51% | 1011.8 hPa | 0 mm | - | 716 W/m² | - |
| 1777572272 | 23.33° C | 50% | 1012.1 hPa | 0 mm | - | 727 W/m² | - |
| 1777571968 | 22.78° C | 53% | 1012.2 hPa | 0 mm | - | 729 W/m² | - |
| 1777571662 | 22.78° C | 55% | 1012.2 hPa | 0 mm | - | 716 W/m² | - |
| 1777571361 | 22.78° C | 56% | 1012.6 hPa | 0 mm | - | 734 W/m² | - |
| 1777571056 | 21.67° C | 51% | 1012.3 hPa | 0 mm | - | 702 W/m² | - |
* Rain latest hour (hover to see other rain measurements)
** Current wind speed in m/s (hover to see current wind gust speed)